2024/03/20 00:00:00,27.0, 0.8
2024/03/20 00:10:00,27.1, 0.6
2024/03/20 00:20:00,27.1, 0.8
2024/03/20 00:30:00,27.1, 1.2
2024/03/20 00:40:00,27.0, 1.4
2024/03/20 00:50:00,27.0, 1.2
2024/03/20 01:00:00,27.1, 0.8
2024/03/20 01:10:00,27.1, 0.6
2024/03/20 01:20:00,27.0, 0.8
2024/03/20 01:30:00,26.9, 0.8
2024/03/20 01:40:00,26.9, 0.8
2024/03/20 01:50:00,26.7, 0.6
2024/03/20 02:00:00,26.8, 0.5
2024/03/20 02:10:00,26.9, 0.4
2024/03/20 02:20:00,27.0, 0.4
2024/03/20 02:30:00,26.9, 0.5
2024/03/20 02:40:00,27.0, 0.2
2024/03/20 02:50:00,27.0,-0.0
2024/03/20 03:00:00,27.0, 0.4
2024/03/20 03:10:00,26.9, 0.1
2024/03/20 03:20:00,26.9, 0.1
2024/03/20 03:30:00,26.9, 0.1
2024/03/20 03:40:00,26.9, 0.1
2024/03/20 03:50:00,26.9,-0.2
2024/03/20 04:00:00,27.0, 0.1
2024/03/20 04:10:00,26.9,-0.3
2024/03/20 04:20:00,27.0,-0.1
2024/03/20 04:30:00,27.7,-0.6
2024/03/20 04:40:00,27.8,-0.5
2024/03/20 04:50:00,27.6,-0.8
2024/03/20 05:00:00,27.6,-0.7
2024/03/20 05:10:00,27.7,-0.8
2024/03/20 05:20:00,27.7,-0.8
2024/03/20 05:30:00,27.7,-0.9
2024/03/20 05:40:00,27.7,-1.4
2024/03/20 05:50:00,27.7,-1.3
2024/03/20 06:00:00,27.6,-1.5
2024/03/20 06:10:00,27.8,-1.7
2024/03/20 06:20:00,27.9,-1.4
2024/03/20 06:30:00,27.9,-1.4
2024/03/20 06:40:00,27.9,-1.6
2024/03/20 06:50:00,29.0,-1.6
2024/03/20 07:00:00,30.2,-1.6
2024/03/20 07:10:00,30.7,-1.9
2024/03/20 07:20:00,31.6,-1.8
2024/03/20 07:30:00,31.6,-1.7
2024/03/20 07:40:00,31.5,-1.4
2024/03/20 07:50:00,31.6,-0.9
2024/03/20 08:00:00,31.7,-1.4
2024/03/20 08:10:00,32.0,-1.5
2024/03/20 08:20:00,31.7,-0.0
2024/03/20 08:30:00,31.6, 0.2
2024/03/20 08:40:00,32.1,-1.2
2024/03/20 08:50:00,32.5,-1.3
2024/03/20 09:00:00,33.2,-1.1
2024/03/20 09:10:00,33.4,-0.3
2024/03/20 09:20:00,33.3, 1.2
2024/03/20 09:30:00,33.3, 0.8
2024/03/20 09:40:00,34.0,-0.9
2024/03/20 09:50:00,34.7,-1.2
2024/03/20 10:00:00,35.6,-1.4
2024/03/20 10:10:00,36.7,-1.4
2024/03/20 10:20:00,37.9,-1.4
2024/03/20 10:30:00,38.4,-1.5
2024/03/20 10:40:00,38.6,-1.4
2024/03/20 10:50:00,38.6,-1.3
2024/03/20 11:00:00,38.8,-1.5
2024/03/20 11:10:00,39.1,-1.4
2024/03/20 11:20:00,39.1,-1.0
2024/03/20 11:30:00,39.1,-1.0
2024/03/20 11:40:00,39.5,-1.3
2024/03/20 11:50:00,39.3,-1.0
2024/03/20 12:00:00,39.0,-0.6
2024/03/20 12:10:00,39.7,-1.1
2024/03/20 12:20:00,40.0,-1.0
2024/03/20 12:30:00,40.2,-1.4
2024/03/20 12:40:00,40.5,-1.5
2024/03/20 12:50:00,40.3,-1.4
2024/03/20 13:00:00,40.1,-1.4
2024/03/20 13:10:00,40.9,-1.7
2024/03/20 13:20:00,41.3,-1.6
2024/03/20 13:30:00,41.6,-1.7
2024/03/20 13:40:00,42.0,-1.6
2024/03/20 13:50:00,42.1,-1.6
2024/03/20 14:00:00,42.1,-0.6
2024/03/20 14:10:00,42.8,-1.0
2024/03/20 14:20:00,43.1,-1.7
2024/03/20 14:30:00,43.8,-2.1
2024/03/20 14:40:00,44.1,-1.8
2024/03/20 14:50:00,44.1,-2.0
2024/03/20 15:00:00,44.5,-2.1
2024/03/20 15:10:00,44.7,-2.6
2024/03/20 15:20:00,44.5,-1.5
2024/03/20 15:30:00,44.7,-2.0
2024/03/20 15:40:00,44.7,-1.9
2024/03/20 15:50:00,44.7,-2.4
2024/03/20 16:00:00,44.6,-1.8
2024/03/20 16:10:00,44.7,-2.4
2024/03/20 16:20:00,44.4,-2.5
2024/03/20 16:30:00,44.1,-1.6
2024/03/20 16:40:00,44.3,-2.0
2024/03/20 16:50:00,44.1,-2.1
2024/03/20 17:00:00,44.0,-2.8
2024/03/20 17:10:00,44.1,-2.7
2024/03/20 17:20:00,44.0,-2.2
2024/03/20 17:30:00,44.0,-2.6
2024/03/20 17:40:00,44.1,-2.5
2024/03/20 17:50:00,44.2,-3.1
2024/03/20 18:00:00,44.3,-3.0
2024/03/20 18:10:00,44.4,-3.1
2024/03/20 18:20:00,44.4,-3.2
2024/03/20 18:30:00,44.4,-3.6
2024/03/20 18:40:00,44.4,-3.3
2024/03/20 18:50:00,44.3,-3.2
2024/03/20 19:00:00,44.3,-3.7
2024/03/20 19:10:00,44.3,-3.5
2024/03/20 19:20:00,44.4,-3.4
2024/03/20 19:30:00,44.5,-3.6
2024/03/20 19:40:00,44.5,-3.2
2024/03/20 19:50:00,44.5,-3.7
2024/03/20 20:00:00,44.5,-3.6
2024/03/20 20:10:00,44.4,-3.7
2024/03/20 20:20:00,44.4,-3.3
2024/03/20 20:30:00,44.3,-3.4
2024/03/20 20:40:00,44.3,-3.6
2024/03/20 20:50:00,44.3,-3.7
2024/03/20 21:00:00,44.3,-3.6
2024/03/20 21:10:00,44.2,-3.9
2024/03/20 21:20:00,44.1,-3.7
2024/03/20 21:30:00,44.2,-3.9
2024/03/20 21:40:00,44.2,-3.6
2024/03/20 21:50:00,44.2,-3.7
2024/03/20 22:00:00,44.2,-4.0
2024/03/20 22:10:00,44.3,-3.8
2024/03/20 22:20:00,44.4,-3.6
2024/03/20 22:30:00,45.0,-3.7
2024/03/20 22:40:00,45.0,-3.7
2024/03/20 22:50:00,45.0,-3.4
2024/03/20 23:00:00,45.0,-3.7
2024/03/20 23:10:00,45.0,-3.8
2024/03/20 23:20:00,44.9,-3.9
2024/03/20 23:30:00,44.9,-3.8
2024/03/20 23:40:00,44.9,-3.8
2024/03/20 23:50:00,44.8,-3.9
